This demonstration page uses our WeatherBlox Daily Observations layout. Learn more.

Left ArrowRight Arrow

Hourly Observations for November 30, 2022

Temp ( °F °C ) Dew Point ( °F °C ) Humidity (%) Winds ( mph kmh ) Pressure ( in mb ) Visibility ( mi km ) Precip ( " mm )
12:54 am 00:54 Clear 21 -6.1 8 -13.3 57 57 NW 7 11 30.22 1023 10 16 0.00 0.00
1:54 am 01:54 Clear 19 -7.2 7 -13.9 59 59 W 6 9 30.23 1024 10 16 0.00 0.00
2:54 am 02:54 Clear 18 -7.8 7 -13.9 61 61 W 8 13 30.27 1025 10 16 0.00 0.00
3:54 am 03:54 Clear 16 -8.9 6 -14.4 64 64 W 6 9 30.29 1026 10 16 0.00 0.00
4:54 am 04:54 Clear 15 -9.4 5 -15 64 64 W 7 11 30.31 1027 10 16 0.00 0.00
5:54 am 05:54 Clear 16 -8.9 5 -15 61 61 W 7 11 30.34 1028 10 16 0.00 0.00
6:54 am 06:54 Clear 15 -9.4 5 -15 64 64 W 8 13 30.37 1029 10 16 0.00 0.00
7:54 am 07:54 Sunny 15 -9.4 5 -15 64 64 W 10 17 30.40 1030 10 16 0.00 0.00
8:54 am 08:54 Sunny 19 -7.2 5 -15 54 54 WNW 13 20 30.42 1030 10 16 0.00 0.00
9:54 am 09:54 Sunny 22 -5.6 6 -14.4 50 50 NW 14 22 30.44 1031 10 16 0.00 0.00
10:54 am 10:54 Sunny 24 -4.4 7 -13.9 47 47 NW 16 26 30.45 1031 10 16 0.00 0.00
11:54 am 11:54 Sunny 27 -2.8 8 -13.3 44 44 NW 15 24 30.45 1031 10 16 0.00 0.00
12:54 pm 12:54 Sunny 30 -1.1 9 -12.8 40 40 WNW 14 22 30.44 1031 10 16 0.00 0.00
1:54 pm 13:54 Sunny 31 -0.6 9 -12.8 39 39 W 13 20 30.43 1031 10 16 0.00 0.00
2:54 pm 14:54 Sunny 33 0.6 10 -12.2 38 38 NW 9 15 30.42 1030 10 16 0.00 0.00
3:54 pm 15:54 Sunny 32 0 9 -12.8 37 37 NW 9 15 30.42 1030 10 16 0.00 0.00
4:54 pm 16:54 Sunny 30 -1.1 9 -12.8 40 40 WNW 3 6 30.42 1030 10 16 0.00 0.00
5:54 pm 17:54 Clear 23 -5 7 -13.9 50 50 Calm 30.43 1031 10 16 0.00 0.00
6:54 pm 18:54 Clear 21 -6.1 8 -13.3 57 57 SSW 3 6 30.44 1031 10 16 0.00 0.00
7:54 pm 19:54 Clear 22 -5.6 8 -13.3 54 54 S 5 7 30.43 1031 10 16 0.00 0.00
8:54 pm 20:54 Clear 21 -6.1 8 -13.3 57 57 S 5 7 30.43 1030 10 16 0.00 0.00
9:54 pm 21:54 Clear 21 -6.1 8 -13.3 57 57 SSE 3 6 30.42 1030 10 16 0.00 0.00
10:54 pm 22:54 Clear 19 -7.2 7 -13.9 59 59 SSE 3 6 30.40 1030 10 16 0.00 0.00
11:54 pm 23:54 Clear 17 -8.3 8 -13.3 67 67 SSE 8 13 30.38 1029 10 16 0.00 0.00

Powered by AerisWeather